Location: Unspecified
(41.8160°N, 0.0000°E)
Time: 14:22:18
(UTC+00:00)

ISS - Visible Passes

Search period start: 20 May 2019 00:00
Search period end: 30 May 2019 00:00
Orbit: 407 x 410 km, 51.6° (Epoch: 20 May)

Date Brightness Start Highest point End Pass type
(mag) Time Alt. Az. Time Alt. Az. Time Alt. Az.
20 May -1.1 00:51:49 10° NW 00:54:24 20° NNE 00:56:58 10° ENE visible
20 May -3.9 02:28:02 10° NW 02:31:21 86° NE 02:34:39 10° SE visible
20 May -2.6 20:45:22 10° WSW 20:48:33 46° NNW 20:51:45 10° NE visible
20 May -0.7 22:23:30 10° NW 22:25:44 17° N 22:27:58 10° NNE visible
21 May -0.8 00:00:59 10° NNW 00:03:16 17° N 00:04:30 14° NE visible
21 May -3.6 19:54:19 10° WSW 19:57:36 79° NNW 20:00:55 10° NE visible
21 May -1.0 21:32:04 10° WNW 21:34:35 20° NNW 21:37:07 10° NE visible
21 May -0.7 23:10:01 10° NW 23:12:05 15° N 23:14:09 10° NE visible
22 May -0.9 00:46:24 10° NW 00:46:55 13° NW 00:46:55 13° NW visible
22 May -1.4 20:40:39 10° W 20:43:28 25° NNW 20:46:18 10° NE visible
22 May -0.6 22:18:54 10° NW 22:20:53 15° N 22:22:53 10° NE visible
22 May -1.1 23:55:36 10° NW 23:57:15 20° N 23:57:15 20° N visible
23 May -2.0 19:49:19 10° W 19:52:24 36° NNW 19:55:30 10° NE visible
23 May -0.7 21:27:34 10° NW 21:29:41 16° N 21:31:47 10° NNE visible
23 May -1.2 23:04:46 10° NNW 23:07:11 19° NNE 23:07:44 18° NNE visible
24 May -0.9 20:36:07 10° WNW 20:38:28 18° NNW 20:40:51 10° NNE visible
24 May -0.9 22:13:50 10° NNW 22:15:59 16° N 22:18:09 10° NE visible
24 May -1.0 23:50:05 10° NW 23:51:01 17° NW 23:51:01 17° NW visible
25 May -0.8 21:22:45 10° NW 21:24:45 15° N 21:26:46 10° NE visible
25 May -1.6 22:59:15 10° NW 23:01:37 26° N 23:01:37 26° N visible
26 May -0.9 20:31:28 10° NW 20:33:30 15° N 20:35:32 10° NE visible
26 May -1.4 22:08:24 10° NW 22:10:59 21° NNE 22:12:14 17° NE visible
26 May -0.8 23:44:37 10° NW 23:44:57 12° NW 23:44:57 12° NW visible
27 May -1.1 21:17:29 10° NNW 21:19:46 17° N 21:22:03 10° NE visible
27 May -1.8 22:53:41 10° NW 22:55:36 29° NNW 22:55:36 29° NNW visible
28 May -1.0 20:26:27 10° NNW 20:28:31 15° N 20:30:34 10° NE visible
28 May -2.4 22:02:48 10° NW 22:05:50 32° NNE 22:06:15 31° NE visible
29 May -1.7 21:11:55 10° NW 21:14:40 23° NNE 21:16:57 13° ENE visible
29 May -1.7 22:48:12 10° WNW 22:49:39 24° WNW 22:49:39 24° WNW visible
